Other Public Products
Issued by NWS Grand Forks, ND

Home | Current Version | Previous Version | Text Only | Print | Product List | Glossary Off
Versions: 1 2 3 4 5 6 7 8 9 10 11 12 13 14 15 16 17 18 19 20 21 22 23 24 25 26 27 28 29 30 31 32 33 34 35 36 37 38 39 40 41 42 43 44 45 46 47 48 49 50

000
FPUS83 KFGF 020010
OPUFGF
PRAIRIE TO PINES WEATHER ROUNDUP
NATIONAL WEATHER SERVICE EASTERN NORTH DAKOTA/GRAND FORKS ND
700 PM CDT MON SEP 01 2014

 **SATELLITE DATA USED TO AUGMENT SKY COVER AT AUTOMATED STATIONS**
 *****  WEATHER ACROSS EASTERN NORTH DAKOTA  *****

CITY           SKY/WX    TMP DP  RH WIND       PRES   REMARKS
GRAND FORKS    MOSUNNY   71  55  56 CALM      29.72F
6HR MIN TEMP:  64; 6HR MAX TEMP:  76; 6HR PCP: TRACE;

GRAND FORKS AF SUNNY     69  56  62 N2        29.74S
GRAND CITY NWS   N/A     68 N/A N/A MISG        N/A
BUXTON         NOT AVBL
DEVILS LAKE    MOSUNNY   70  48  46 N15G22    29.75R
6HR MIN TEMP:  63; 6HR MAX TEMP:  72;

FARGO          MOSUNNY   65  55  70 N9        29.74R
6HR MIN TEMP:  64; 6HR MAX TEMP:  78;

WAHPETON ARPT  MOCLDY    72  55  56 W13       29.74R
$$

 *****  WEATHER ACROSS CENTRAL AND WESTERN NORTH DAKOTA  *****

CITY           SKY/WX    TMP DP  RH WIND       PRES   REMARKS
JAMESTOWN      SUNNY     69  52  54 NW10      29.77S
6HR MIN TEMP:  69; 6HR MAX TEMP:  73;

BISMARCK       SUNNY     72  43  35 NW9       29.82F
6HR MIN TEMP:  70; 6HR MAX TEMP:  75;

MINOT          SUNNY     71  42  35 W8        29.77F
6HR MIN TEMP:  69; 6HR MAX TEMP:  73;

MINOT AFB      MOSUNNY   65  49  55 W7        29.77S
6HR MIN TEMP:  65; 6HR MAX TEMP:  73;

GARRISON         N/A     69  47  45 W7        29.80S
6HR MIN TEMP:  67; 6HR MAX TEMP:  73;

WILLISTON      MOSUNNY   70  43  37 W9        29.82F
6HR MIN TEMP:  64; 6HR MAX TEMP:  74; 6HR PCP: TRACE;

DICKINSON      MOSUNNY   67  44  43 W13       29.85F
6HR MIN TEMP:  63; 6HR MAX TEMP:  71;

HETTINGER      PTSUNNY   65  46  50 NW8       29.90S
6HR MIN TEMP:  61; 6HR MAX TEMP:  71; 6HR PCP: TRACE;

$$

 *****  OTHER OBSERVATIONS NORTHEAST NORTH DAKOTA  *****

CITY           SKY/WX    TMP DP  RH WIND       PRES   REMARKS
WALHALLA         N/A     72  46  40 W5        29.70S
LANGDON        FAIR      64  48  55 W9        29.73S
CAVALIER       FAIR      66  57  72 SW7       29.70S
GRAFTON        FAIR      68  54  60 SW6       29.71S
CANDO          FAIR      64  54  68 CALM      29.76S
FORT TOTTEN    NOT AVBL
ROLLA          FAIR      64  46  52 W8        29.77R
RUGBY          FAIR      68  50  52 W8        29.76F
 ***** THE ABOVE OBSERVATIONS ARE NON NWS ARE NOT QUALITY
        CONTROLLED AND MAY MIS-REPORT RAIN FOR SNOW...
$$

 *****  OTHER OBSERVATIONS SOUTHEAST NORTH DAKOTA *****

CITY           SKY/WX    TMP DP  RH WIND       PRES   REMARKS
COOPERSTOWN    NOT AVBL
VALLEY CITY    FAIR      70  52  52 NW12G18   29.77S
OAKES            N/A     72  55  56 NW12      29.78R
GWINNER        CLEAR     73  54  49 NW12G20   29.78R
BUFFALO        NOT AVBL
WYNDMERE       NOT AVBL
 ***** THE ABOVE OBSERVATIONS ARE NON NWS ARE NOT QUALITY
       CONTROLLED AND MAY MIS-REPORT RAIN FOR SNOW...
$$

  *****  WEATHER ACROSS NORTHERN MINNESOTA  *****

CITY           SKY/WX    TMP DP  RH WIND       PRES   REMARKS
FLAG ISLAND    CLOUDY    63  54  72 CALM      29.67F
WARROAD        CLOUDY    63  55  77 W9        29.70S
ROSEAU         MOCLDY    64  55  72 SW8       29.71S
HALLOCK        MOSUNNY   68  55  64 SW7       29.70S
THF RVR FALLS  MOSUNNY   64  52  63 CALM      29.73F
6HR MIN TEMP:  63; 6HR MAX TEMP:  72;

HALSTAD          N/A     64  55  74 E2          N/A
FOSSTON        CLOUDY    63  57  82 S5        29.75S
BAUDETTE       MOCLDY    61  57  87 CALM      29.70R
6HR MIN TEMP:  60; 6HR MAX TEMP:  72; 6HR PCP:  0.09;

WASKISH        MOCLDY    66  55  68 W21G30    29.71R
CROOKSTON      MOSUNNY   66  55  68 CALM      29.74S
$$
  *****  WEATHER ACROSS CENTRAL AND WEST MINNESOTA  *****

CITY           SKY/WX    TMP DP  RH WIND       PRES   REMARKS
BEMIDJI        LGT RAIN  63  55  77 SW10      29.74S
PARK RAPIDS    LGT RAIN  59  55  87 NW3       29.76R
6HR MIN TEMP:  59; 6HR MAX TEMP:  74; 6HR PCP:  0.11;

WADENA         MOCLDY    68  57  68 S5        29.74S
DETROIT LAKES  TSTM      57  54  88 NE3       29.78R
MOORHEAD       MOSUNNY   64  57  77 NE8       29.75R HAZE
FERGUS FALLS   PTCLDY    72  55  56 W9        29.73S
ELBOW LAKE     FAIR      70  57  63 W7        29.74S
MORRIS MN      MOCLDY    70  54  56 W6        29.75S
STAPLES        MOCLDY    68  54  60 W6        29.75S
WHEATON        PTSUNNY   66  55  68 SW7       29.77R
$$
  *****  WEATHER ELSEWHERE ACROSS MINNESOTA  *****

CITY           SKY/WX    TMP DP  RH WIND       PRES   REMARKS
DULUTH         PTCLDY    68  50  52 W8        29.71S
6HR MIN TEMP:  66; 6HR MAX TEMP:  73;

INTRNTL FALLS  CLEAR     65  54  67 W5        29.68S
6HR MIN TEMP:  63; 6HR MAX TEMP:  70;

ELY            CLEAR     63  52  67 W7        29.69R
CLOQUET        CLEAR     66  48  52 W6        29.72S
BRAINERD       PTCLDY    69  54  58 W7        29.75S
6HR MIN TEMP:  68; 6HR MAX TEMP:  73;

HIBBING        CLEAR     66  51  58 W5        29.71S
6HR MIN TEMP:  66; 6HR MAX TEMP:  72;

ALEXANDRIA     PTCLDY    65  58  78 SE3       29.77F
6HR MIN TEMP:  58; 6HR MAX TEMP:  74; 6HR PCP:  0.05;

SAINT CLOUD    CLEAR     74  55  51 W9        29.76R
6HR MIN TEMP:  74; 6HR MAX TEMP:  78;

MINNEAPOLIS    PTCLDY    75  55  49 W14       29.76S
6HR MIN TEMP:  73; 6HR MAX TEMP:  78;

$$

  *****  WEATHER ACROSS SOUTH DAKOTA  *****

CITY           SKY/WX    TMP DP  RH WIND       PRES   REMARKS
SIOUX FALLS    MOSUNNY   74  53  48 W5        29.84R
6HR MIN TEMP:  73; 6HR MAX TEMP:  78;

BROOKINGS      NOT AVBL
WATERTOWN      CLOUDY    66  52  60 SW13      29.81F
6HR MIN TEMP:  64; 6HR MAX TEMP:  76; 6HR PCP: TRACE;

HURON          CLOUDY    62  56  80 W7        29.87R
6HR MIN TEMP:  62; 6HR MAX TEMP:  79; 6HR PCP: TRACE;

SISSETON         N/A     71  56  58 W7        29.75S
ABERDEEN       PTSUNNY   73  53  49 NW9       29.79R
6HR MIN TEMP:  71; 6HR MAX TEMP:  77;

MITCHELL       LGT RAIN  68  54  60 NW14      29.85R
PIERRE         CLOUDY    69  50  50 N17       29.84R
6HR MIN TEMP:  68; 6HR MAX TEMP:  80; 6HR PCP: TRACE;

MOBRIDGE       MOSUNNY   69  51  52 N8        29.82R
RAPID CITY     MOSUNNY   64  47  53 N8        29.95S
6HR MIN TEMP:  56; 6HR MAX TEMP:  73; 6HR PCP:  0.05;

$$

  *****  SOME WEATHER IN NEARBY STATES *****

CITY           SKY/WX    TMP DP  RH WIND       PRES   REMARKS
GLASGOW MT     MOSUNNY   66  47  50 S9        29.83F
6HR MIN TEMP:  63; 6HR MAX TEMP:  74;

GREAT FALLS MT MOSUNNY   70  34  26 W23G29    29.89F
6HR MIN TEMP:  64; 6HR MAX TEMP:  72;

CHEYENNE WY    MOSUNNY   72  30  21 W20G35    30.05R
6HR MIN TEMP:  66; 6HR MAX TEMP:  76;

SCOTTSBLUFF NE LGT RAIN  70  48  45 NE13      29.94R
6HR MIN TEMP:  70; 6HR MAX TEMP:  82; 6HR PCP: TRACE;

OMAHA NE       LGT RAIN  75  61  61 SE10      29.86F
6HR MIN TEMP:  75; 6HR MAX TEMP:  81; 6HR PCP: TRACE;

DES MOINES IA  MOCLDY    76  63  64 W5        29.85F
6HR MIN TEMP:  76; 6HR MAX TEMP:  81;

DAVENPORT IA   PTCLDY    75  66  73 W9G21     29.82R
6HR MIN TEMP:  75; 6HR MAX TEMP:  81;

CHICAGO IL     PTCLDY    79  62  56 SW14      29.78R
6HR MIN TEMP:  79; 6HR MAX TEMP:  83;

EAU CLAIRE WI  PTCLDY    71  57  61 W6        29.75R
6HR MIN TEMP:  71; 6HR MAX TEMP:  77;

LA CROSSE WI   CLEAR     76  59  55 W8        29.77R
6HR MIN TEMP:  67; 6HR MAX TEMP:  80; 6HR PCP:  0.03;

$$

  *****  SOME NATIONAL WEATHER *****

CITY           SKY/WX    TMP DP  RH WIND       PRES   REMARKS
LA GUARDIA NY  MOCLDY    81  72  74 S9        29.93R
6HR MIN TEMP:  81; 6HR MAX TEMP:  88; 6HR PCP: TRACE;



USA.gov is the U.S. government's official web portal to all federal, state and local government web resources and services.